Weather observations for the past three days for
Marietta / Dobbins Air Force Base
Imperial (Metric)
Date Time (edt) Wind (mph) Vis. (mi.) Weather Sky Cond. Temperature (ºF) Relative Humidity Wind Chill (°F) Heat Index (°F) Pressure Precipitation (in)
Air Dwpt 6 hour altimeter (in) sea level (mb) 1 hr 3 hr 6 hr
Max. Min.
22 23:55 Calm 10.00 Fair CLR 83.5 64.9 54% 85 30.02 1015.1
22 22:55 Calm 10.00 Fair CLR 85.5 64.6 50% 87 30.01 1014.8
22 21:55 Calm 10.00 A Few Clouds FEW070 88 64.6 46% 90 30 1014.5
22 20:55 E 3 10.00 Partly Cloudy SCT070 89.6 63.3 42% 91 29.99 1014.2
22 19:55 E 3 10.00 Fair CLR 91.9 61.2 95.2 88.5 36% 92 29.98 1013.8
22 18:55 Calm 10.00 Fair CLR 92.3 60.6 35% 92 29.98 1013.9
22 17:55 S 5 10.00 Fair CLR 94.5 59 31% 94 29.99 1014.2
22 16:55 N 6 10.00 Fair CLR 93.9 60.4 33% 94 30.01 1015.0
22 15:55 Calm 10.00 Mostly Cloudy SCT050 SCT100 SCT150 BKN200 92.3 61.3 36% 93 30.03 1015.6
22 14:55 E 8 10.00 Mostly Cloudy SCT050 BKN100 BKN150 BKN200 91.9 63.3 39% 93 30.06 1016.7
22 13:55 Calm 10.00 Mostly Cloudy SCT050 SCT110 SCT140 BKN200 BKN250 89.2 63.7 90.1 75.4 43% 90 30.09 1017.7
22 12:55 E 8 10.00 Mostly Cloudy FEW050 SCT120 SCT160 BKN200 BKN250 89.4 64.6 44% 91 30.11 1018.3
22 11:55 SE 6 10.00 A Few Clouds FEW050 FEW150 FEW200 FEW250 87.6 66 49% 90 30.13 1018.9
22 10:55 E 3 10.00 A Few Clouds FEW050 FEW150 FEW200 FEW250 84.6 67.6 57% 88 30.14 1019.4
22 09:55 Calm 10.00 Partly Cloudy FEW150 SCT200 SCT250 81.9 67.5 62% 85 30.15 1019.7
22 08:55 Calm 10.00 Partly Cloudy FEW150 SCT200 SCT250 79.3 66.6 65% 81 30.15 1019.7
22 07:55 Vrbl 2 10.00 Partly Cloudy FEW200 SCT250 75.4 65.3 75.7 71.2 71% 77 30.15 1019.7
22 06:55 Calm 10.00 Fair CLR 72.5 64 75% 30.14 1019.4
22 05:55 Calm 10.00 Fair CLR 73.2 64 73% 30.14 1019.4
22 04:55 Calm 10.00 Fair CLR 71.8 64.2 77% 30.13 1019.1
22 03:55 Calm 10.00 Fair CLR 73.2 64 73% 30.13 1019.1
22 02:55 Calm 10.00 Fair CLR 74.8 63.9 69% 30.13 1019.0
22 01:55 Calm 10.00 Fair CLR 74.8 63.5 88.2 74.3 68% 30.14 1019.4
22 00:55 Calm 10.00 Fair CLR 78.4 63.3 60% 80 30.15 1019.7
21 23:55 Calm 10.00 Fair CLR 80.2 62.6 55% 82 30.15 1019.7
21 22:55 E 3 10.00 Fair CLR 80.8 62.1 53% 82 30.15 1019.7
21 21:55 E 3 10.00 Fair CLR 82.9 62.4 50% 84 30.13 1019.1
21 19:55 E 2 10.00 A Few Clouds FEW250 88.2 60.1 91 86.7 39% 88 30.11 1018.5
21 18:55 E 5 10.00 A Few Clouds FEW065 89.8 59.2 36% 89 30.12 1018.9
21 17:55 NE 3 10.00 A Few Clouds FEW065 90.9 59.4 35% 90 30.13 1019.1
21 16:55 E 6 10.00 A Few Clouds FEW065 89.8 59.2 36% 89 30.14 1019.6
21 15:55 E 10 10.00 A Few Clouds FEW065 89.2 57.2 34% 88 30.16 1020.2
21 14:55 SE 5 10.00 Mostly Cloudy SCT065 BKN190 BKN250 89.1 59.4 37% 88 30.18 1020.8
21 13:55 E 7 10.00 Mostly Cloudy SCT060 SCT180 BKN200 BKN250 88.7 61.9 89.2 73.6 41% 89 30.2 1021.4
21 12:55 E 7 10.00 Mostly Cloudy SCT060 SCT180 BKN200 86 60.8 43% 86 30.23 1022.5
21 11:55 N 3 10.00 Partly Cloudy SCT050 84.4 60.6 45% 85 30.25 1023.2
21 10:55 SE 3 10.00 A Few Clouds FEW050 83.1 61.9 49% 84 30.26 1023.6
21 09:55 S 3 10.00 A Few Clouds FEW050 80.1 64.4 59% 82 30.26 1023.6
21 08:55 Vrbl 2 10.00 A Few Clouds FEW050 77.2 64 64% 79 30.26 1023.6
21 07:57 E 3 10.00 A Few Clouds FEW050 73.8 64 74.7 67.3 72% 30.26 1023.7
21 06:55 Calm 10.00 Fair CLR 68.2 63.1 84% 30.25 1023.4
21 05:55 Calm 10.00 Fair CLR 69.6 63.5 81% 30.24 1023.0
21 04:55 Calm 10.00 Fair CLR 69.1 63 81% 30.23 1022.6
21 03:55 Calm 10.00 Fair CLR 70.5 62.2 75% 30.22 1022.3
21 02:55 Calm 10.00 Fair CLR 73 62.6 70% 30.24 1022.9
21 01:55 Calm 10.00 Fair CLR 74.3 62.6 85.8 74.3 67% 30.23 1022.5
21 00:55 NE 3 10.00 Fair CLR 75.9 62.4 63% 78 30.24 1022.9
20 23:55 E 2 10.00 Fair CLR 77 62.1 60% 79 30.24 1022.9
20 22:55 E 2 10.00 Fair CLR 78.3 61.7 57% 80 30.25 1023.2
20 21:55 NE 3 10.00 Fair CLR 81.1 60.6 50% 82 30.23 1022.5
20 20:55 E 5 10.00 A Few Clouds FEW070 FEW250 82.9 59.9 46% 83 30.22 1022.2
20 19:55 E 7 10.00 A Few Clouds FEW070 FEW250 86 58.8 89.6 85.6 40% 85 30.22 1022.3
20 18:55 E 8 10.00 A Few Clouds FEW070 FEW250 87.4 59.4 39% 87 30.22 1022.3
20 17:55 NE 7 10.00 A Few Clouds FEW070 FEW250 86.7 58.8 39% 86 30.23 1022.6
20 16:55 E 7 10.00 Partly Cloudy SCT065 SCT250 87.6 59.5 39% 87 30.24 1022.9
20 15:55 E 8 G 20 10.00 Partly Cloudy SCT065 87.4 59.4 39% 87 30.25 1023.2
20 14:55 E 8 10.00 Mostly Cloudy BKN060 87.3 60.6 41% 87 30.27 1023.9
20 13:55 E 6 G 18 10.00 Mostly Cloudy BKN055 86.5 60.6 87.4 73.2 42% 86 30.29 1024.5
20 12:55 E 9 G 23 10.00 Partly Cloudy SCT042 85.8 61.3 44% 86 30.31 1025.3
20 11:55 E 14 10.00 Partly Cloudy SCT040 SCT070 84.9 61.7 46% 85 30.32 1025.6
20 10:55 E 10 10.00 A Few Clouds FEW040 FEW070 81.9 62.4 52% 83 30.33 1025.9
20 09:55 E 7 10.00 A Few Clouds FEW060 79.9 63.7 58% 81 30.32 1025.6
20 08:55 E 6 10.00 A Few Clouds FEW060 FEW250 77.4 64.2 64% 79 30.31 1025.4
20 07:55 Calm 10.00 Partly Cloudy FEW060 SCT250 72.9 64 77 71.2 74% 30.31 1025.4
20 06:55 Calm 10.00 Fair CLR 71.6 63.7 76% 30.29 1024.7
20 05:55 Calm 10.00 A Few Clouds FEW060 72.3 63.5 74% 30.28 1024.3
20 04:55 Calm 10.00 Fair CLR 73.4 63.3 71% 30.26 1023.7
20 03:55 Calm 10.00 Fair CLR 74.5 63.1 68% 30.25 1023.2
20 02:55 E 7 10.00 Fair CLR 74.3 62.6 67% 30.24 1022.9
20 01:55 E 9 10.00 A Few Clouds FEW060 77 62.4 82.4 75.7 61% 79 30.23 1022.5
20 00:55 E 5 10.00 Fair CLR 76.8 62.2 61% 79 30.24 1022.9
Date Time (edt) Wind (mph) Vis. (mi.) Weather Sky Cond. Air Dwpt Max. Min. Relative Humidity Wind Chill (°F) Heat Index (°F) altimeter (in) sea level (mb) 1 hr 3 hr 6 hr
6 hour
Temperature (ºF) Pressure Precipitation (in)